N2NET Weather Reports


Display with metric or nautical units.
time (UTC)temp
F
wind
direction
speed
MPH
gust
MPH
rain 1hr
in
rain 24hr
in
rain mn
in
humidity
%
barometer
mb
20260902223102 59 115 0.0 3.0 0.02 0.21 0.20 100 1020.1
20260902221606 60 0 0.0 2.0 0.02 0.21 0.20 100 1020.2
20260902220110 60 135 0.0 1.0 0.01 0.20 0.19 100 1020.1
20260902214635 60 116 0.0 3.0 0.01 0.20 0.19 100 1020.0
20260902213103 60 141 0.0 0.0 0.00 0.19 0.18 100 1020.2
20260902211605 60 0 1.0 3.0 0.00 0.19 0.18 100 1020.3
20260902210136 60 158 1.0 4.0 0.00 0.19 0.18 100 1020.1
20260902204606 60 134 0.0 3.0 0.00 0.25 0.18 100 1020.1
20260902203107 60 156 1.0 2.0 0.00 0.25 0.18 100 1020.1
20260902201621 60 28 2.0 7.0 0.00 0.25 0.18 100 1020.0
20260902200112 61 144 1.0 4.0 0.00 0.25 0.18 100 1019.9
20260902194600 61 62 0.0 2.0 0.00 0.25 0.18 100 1019.7
20260902193104 61 135 1.0 2.0 0.00 0.25 0.18 100 1019.9
20260902191605 61 0 0.0 3.0 0.00 0.25 0.18 100 1020.1
20260902190128 61 0 0.0 2.0 0.01 0.25 0.18 100 1020.2
20260902184610 61 0 0.0 1.0 0.01 0.25 0.18 100 1020.6
20260902183108 60 0 0.0 1.0 0.02 0.25 0.18 100 1020.8
20260902181623 60 0 0.0 3.0 0.06 0.25 0.18 100 1020.7
20260902180106 59 47 2.0 4.0 0.15 0.24 0.17 100 1020.8
20260902174604 58 0 0.0 3.0 0.15 0.24 0.17 100 1021.1
20260902173114 58 92 1.0 3.0 0.14 0.23 0.16 100 1020.9
20260902171621 58 0 0.0 2.0 0.10 0.19 0.12 100 1021.3
20260902170107 57 68 2.0 6.0 0.00 0.09 0.02 100 1022.1
20260902164604 58 0 0.0 3.0 0.00 0.09 0.02 100 1021.6
20260902163057 58 0 0.0 2.0 0.00 0.09 0.02 100 1021.5
20260902161608 58 0 0.0 2.0 0.00 0.09 0.02 100 1021.7
20260902160059 58 109 0.0 5.0 0.00 0.09 0.02 100 1021.6
20260902154557 58 0 1.0 4.0 0.00 0.09 0.02 100 1021.1
20260902153105 58 0 0.0 3.0 0.00 0.09 0.02 100 1021.2
20260902151604 58 63 1.0 4.0 0.00 0.09 0.02 100 1021.3
20260902150106 58 100 1.0 7.0 0.00 0.09 0.02 100 1021.3
20260902144559 58 111 2.0 5.0 0.00 0.09 0.02 100 1021.4
20260902143104 59 80 0.0 3.0 0.00 0.09 0.02 100 1021.5
20260902141605 58 0 0.0 3.0 0.00 0.09 0.02 100 1021.7
20260902134620 59 124 1.0 3.0 0.00 0.09 0.02 100 1021.3
20260902133102 59 108 0.0 4.0 0.00 0.09 0.02 100 1021.5
20260902131604 59 133 0.0 3.0 0.00 0.09 0.02 100 1021.2
20260902124559 58 103 0.0 3.0 0.00 0.17 0.02 100 1021.0
20260902123103 58 37 0.0 2.0 0.01 0.17 0.02 100 1020.9
20260902121602 58 129 0.0 4.0 0.01 0.17 0.02 100 1020.9
20260902120101 58 134 0.0 5.0 0.01 0.17 0.02 100 1020.7
20260902114604 58 95 1.0 4.0 0.01 0.17 0.02 100 1020.9
20260902113110 58 86 0.0 1.0 0.00 0.16 0.01 100 1020.6
20260902111601 58 121 0.0 2.0 0.00 0.16 0.01 100 1020.7
20260902104608 58 0 0.0 0.0 0.00 0.17 0.01 100 1020.7
20260902103103 58 0 0.0 0.0 0.00 0.17 0.01 100 1020.8
20260902101558 58 0 0.0 1.0 0.00 0.17 0.01 100 1020.6
20260902100059 58 0 0.0 0.0 0.00 0.17 0.01 100 1020.6
20260902094559 58 0 0.0 0.0 0.00 0.17 0.01 100 1020.3
20260902093101 58 0 0.0 0.0 0.00 0.17 0.01 100 1020.2
20260902091556 58 0 0.0 0.0 0.00 0.17 0.01 100 1020.1
20260902090059 58 0 0.0 0.0 0.00 0.17 0.01 100 1019.8
20260902084600 58 0 0.0 1.0 0.00 0.17 0.01 100 1019.9
20260902083058 58 0 0.0 1.0 0.00 0.17 0.01 100 1019.8
20260902081610 58 0 0.0 0.0 0.00 0.17 0.01 100 1019.7
20260902074614 58 0 0.0 1.0 0.00 0.17 0.01 100 1019.6
20260902073101 58 0 0.0 2.0 0.00 0.17 0.01 100 1019.8
20260902071601 58 0 0.0 2.0 0.00 0.17 0.01 100 1019.8
20260902064555 58 102 0.0 2.0 0.00 0.17 0.01 100 1020.0
20260902063114 58 44 0.0 2.0 0.00 0.17 0.01 100 1019.7
20260902060126 58 108 1.0 3.0 0.00 0.17 0.01 100 1019.8
20260902054611 58 91 0.0 3.0 0.00 0.17 0.01 100 1019.9
20260902053107 59 141 0.0 2.0 0.01 0.17 0.01 100 1019.9
20260902051600 59 0 0.0 1.0 0.01 0.17 0.01 100 1019.6
20260902050105 59 56 0.0 3.0 0.01 0.17 0.01 100 1019.3
20260902044610 59 84 0.0 2.0 0.01 0.18 0.01 100 1019.3
20260902043114 60 67 0.0 3.0 0.00 0.17 0.00 100 1019.0
20260902041608 60 131 0.0 5.0 0.00 0.17 0.00 100 1019.0
20260902040108 60 122 0.0 4.0 0.00 0.17 0.00 100 1018.8
20260902034617 61 108 0.0 5.0 0.00 0.17 0.17 100 1018.5
20260902033059 61 0 0.0 2.0 0.00 0.17 0.17 100 1018.3
20260902031605 62 115 0.0 3.0 0.00 0.17 0.17 100 1018.1
20260902030106 62 0 0.0 2.0 0.00 0.17 0.17 100 1018.3
20260902024609 62 45 1.0 3.0 0.00 0.17 0.17 100 1018.1
20260902023104 62 61 0.0 2.0 0.00 0.17 0.17 100 1018.1
20260902021609 63 0 0.0 4.0 0.00 0.17 0.17 100 1018.1
20260902020106 63 152 1.0 3.0 0.01 0.17 0.17 100 1018.1
20260902014601 64 115 1.0 4.0 0.01 0.17 0.17 100 1018.1
20260902013100 64 138 1.0 3.0 0.01 0.17 0.17 100 1018.0
20260902011602 65 111 0.0 6.0 0.01 0.17 0.17 100 1017.7
20260902004603 65 0 1.0 7.0 0.00 0.18 0.16 100 1017.2
20260902003134 65 0 0.0 2.0 0.00 0.18 0.16 100 1016.9
20260902001559 65 0 0.0 2.0 0.00 0.18 0.16 100 1016.5
20260902000107 66 0 0.0 0.0 0.00 0.18 0.16 100 1016.3
20260901234603 66 0 0.0 0.0 0.00 0.19 0.16 100 1016.2
20260901233106 66 0 0.0 0.0 0.00 0.19 0.16 100 1016.3
20260901231605 66 0 0.0 2.0 0.00 0.19 0.16 100 1016.4
20260901224607 67 136 0.0 2.0 0.00 0.19 0.16 100 1016.2